Showing default

FLOCK 4G 26, 62633

Orbit data source: Space-Track

FLOCK 4G 26, 62633 is a payload satellite owned by Planet (US) in SSO that was launched on Tue, 14 Jan 2025 UTC via an FALCON 9 launch vehicle from the Air Force Western Test Range (AFWTR). Payload-class satellites include a variety of spacecraft equipped with specific instruments for various scientific and technological missions. These include communications satellites like Starlink; space stations such as the ISS; scientific satellites like the Hubble; Earth observation satellites from companies like Planet Labs, Umbra, and HawkEye 360; GPS; miniature CubeSats for education and research; and military/defense satellites.

Loading next visibility...
Identifier
62633, 2025-009AA
Orbit
SSO
Country
Flag of USUS
Related business
Manufacturer
Planet
Mission
Operational Commercial Imaging
Bus & Motor
CUBESAT 3U, Unknown motor
Mass
5.7 kg wet, 5.7 kg dry
Launch date (UTC)
2025-01-14 (11 months ago)
Launch vehicle
FALCON 9
Launch site
Air Force Western Test Range (AFWTR)
Object type
Payload
Rocket body
Debris
Shape & HBR
Box + 2 Pan, 1.0 m
Radar Cross Section
0.072 m², Medium (>0.1 m² and < 1m²)

Expand to show TLE details & history
Last TLE update: 15 hours ago

TLE from 15 hours ago
0 FLOCK 4G 26
1 62633U 25009AA  25346.67109233  .00013209  00000-0  52872-3 0  9999
2 62633  97.4194  64.9478 0002702 226.7915 133.3098 15.25188994 50449
Epoch: 2025-12-12T16:06Z
TLE epoch observation values (Epoch: 2025-12-12T16:06:22.377Z)
Latitude
0.00003°
Longitude
101.74519°
Altitude
494.588 km
Speed
7.617 km/s
True Right ascension
04h 19m 47s
True Declination
0° 00' 00"
Sunlit
Object was in full shadow at epoch
Visualization orbit readout
Latitude
Unknown
Longitude
Unknown
Altitude
Unknown
Speed
Unknown
Apparent Right ascension
Unknown
Apparent Declination
Unknown
Sunlit
N/A
Visualization observer readout
Local Sidereal Time
05:23:56
Azimuth
Unknown
Elevation
Unknown
Doppler factor
Unknown
Orbital elements
Apogee altitude
489.032 km
Perigee altitude
485.322 km
Semi-major axis
6,865.314 km
Eccentricity
0.00027
Inclination
97.4194°
RAAN
64.9478°
Arg. of periapsis
226.7915°
True anomaly
133.33232°
Mean anomaly
133.3098°
Eccentric anomaly
133.32106°
Mean motion
3.81551 °/min
Orbital period
94.35 mins
BSTAR
0.00052872
Loading maneuver chart data...
Computing Atmospheric mass density...
Loading historical data...
Loading historical data...
Loading historical data...
Loading historical data...
Loading historical data...
Loading historical data...
Loading historical data...

Documentation

Showing up to 5 results
|